TimeMST,TemperatureF,Dew PointF,Humidity,Sea Level PressureIn,VisibilityMPH,Wind Direction,Wind SpeedMPH,Gust SpeedMPH,PrecipitationIn,Events,Conditions,WindDirDegrees,DateUTC
12:53 AM,27.0,23.0,85,30.51,10.0,Calm,Calm,-,N/A,,Overcast,0,2013-02-16 07:53:00
1:53 AM,27.0,24.1,89,30.51,10.0,Calm,Calm,-,N/A,,Overcast,0,2013-02-16 08:53:00
2:53 AM,27.0,23.0,85,30.49,10.0,Calm,Calm,-,N/A,,Overcast,0,2013-02-16 09:53:00
3:53 AM,27.0,24.1,89,30.48,10.0,Calm,Calm,-,N/A,,Overcast,0,2013-02-16 10:53:00
4:53 AM,28.0,24.1,85,30.45,10.0,Calm,Calm,-,N/A,,Overcast,0,2013-02-16 11:53:00
5:53 AM,28.0,24.1,85,30.45,9.0,Calm,Calm,-,N/A,,Overcast,0,2013-02-16 12:53:00
6:53 AM,28.0,24.1,85,30.45,10.0,Calm,Calm,-,N/A,,Overcast,0,2013-02-16 13:53:00
7:53 AM,28.0,25.0,88,30.46,8.0,Calm,Calm,-,N/A,,Overcast,0,2013-02-16 14:53:00
8:53 AM,28.9,25.0,85,30.45,10.0,Calm,Calm,-,N/A,,Overcast,0,2013-02-16 15:53:00
9:53 AM,30.9,23.0,72,30.43,10.0,SSW,6.9,-,N/A,,Overcast,210,2013-02-16 16:53:00
10:53 AM,32.0,25.0,75,30.41,10.0,WSW,8.1,-,N/A,,Overcast,240,2013-02-16 17:53:00
11:53 AM,34.0,24.1,67,30.38,10.0,WSW,5.8,-,N/A,,Overcast,250,2013-02-16 18:53:00
12:53 PM,35.1,23.0,61,30.34,10.0,Calm,Calm,-,N/A,,Clear,0,2013-02-16 19:53:00
1:53 PM,36.0,21.9,57,30.30,10.0,WSW,4.6,-,N/A,,Clear,240,2013-02-16 20:53:00
2:53 PM,37.0,25.0,62,30.27,10.0,East,3.5,-,N/A,,Clear,80,2013-02-16 21:53:00
3:53 PM,36.0,25.0,64,30.24,10.0,East,4.6,-,N/A,,Clear,90,2013-02-16 22:53:00
4:53 PM,35.1,24.1,64,30.21,10.0,East,5.8,-,N/A,,Clear,90,2013-02-16 23:53:00
5:53 PM,32.0,25.0,75,30.19,10.0,East,4.6,-,N/A,,Clear,80,2013-02-17 00:53:00
6:53 PM,30.0,24.1,79,30.16,10.0,East,5.8,-,N/A,,Clear,80,2013-02-17 01:53:00
7:53 PM,28.0,23.0,81,30.14,10.0,Calm,Calm,-,N/A,,Clear,0,2013-02-17 02:53:00
8:53 PM,25.0,21.0,85,30.12,10.0,ENE,3.5,-,N/A,,Clear,70,2013-02-17 03:53:00
9:53 PM,25.0,21.0,85,30.08,10.0,North,3.5,-,N/A,,Clear,360,2013-02-17 04:53:00
10:53 PM,21.9,19.0,89,30.07,10.0,ENE,4.6,-,N/A,,Scattered Clouds,60,2013-02-17 05:53:00
11:53 PM,23.0,19.0,85,30.01,10.0,ENE,5.8,-,N/A,,Overcast,70,2013-02-17 06:53:00